Weather History for Jackson, WY

Change the Weather History Date:

Monday, April 28, 2014

  Actual Average Record
Temperature  
Mean Temperature 30 °F -  
Max Temperature 35 °F 52 °F 75 °F (1987)
Min Temperature 24 °F 25 °F 11 °F (1984)
Degree Days  
Heating Degree Days 36    
Moisture  
Dew Point 24 °F    
Average Humidity 80    
Maximum Humidity 100    
Minimum Humidity 52    
Precipitation  
Precipitation 0.03 in - - ()
Sea Level Pressure  
Sea Level Pressure 30.03 in    
Wind  
Wind Speed 7 mph (West)    
Max Wind Speed 17 mph    
Max Gust Speed 24 mph    
Visibility 8 miles    
Events Snow    
Averages and records for this station are not official NWS values.
T = Trace of Precipitation, MM = Missing Value Source: NWS Daily Summary

Daily Weather History Graph

Daily Weather History Graph

Search for Another Location

Airport:

Trip Planner

Search our weather history database for the weather conditions in past years. The results will help you decide how hot, cold, wet, or windy it might be!

Date:

Astronomy

Apr. 28, 2014 Rise Set
Actual Time 6:19 AM MDT 8:21 PM MDT
Civil Twilight 5:48 AM MDT 8:53 PM MDT
Nautical Twilight 5:10 AM MDT 9:31 PM MDT
Astronomical Twilight 4:28 AM MDT 10:13 PM MDT
Moon 6:01 AM MDT (4/28) 8:02 PM MDT (4/28)
Length of Visible Light 15h 04m
Length of Day
14h 02m
Waning Crescent, 0% of the Moon is Illuminated
Apr 28
Waning Crescent
Apr 29
New
May 6
First Quarter
May 14
Full
May 21
Last Quarter

Hourly Weather History & Observations

Time (MDT) Temp. Windchill Dew Point Humidity Pressure Visibility Wind Dir Wind Speed Gust Speed Precip Events Conditions
12:15 AM 30.2 °F 21.9 °F 26.6 °F 86% 29.81 in 10.0 mi South 9.2 mph - N/A   Overcast
12:35 AM 32.0 °F 23.6 °F 26.6 °F 80% 29.82 in 7.0 mi WSW 10.4 mph - N/A   Overcast
12:55 AM 30.2 °F 22.6 °F 28.4 °F 93% 29.83 in 7.0 mi SW 8.1 mph - N/A   Overcast
1:15 AM 30.2 °F 20.2 °F 28.4 °F 93% 29.82 in - South 12.7 mph - N/A   Unknown
1:35 AM 30.2 °F 21.9 °F 28.4 °F 93% 29.84 in 10.0 mi West 9.2 mph - N/A   Mostly Cloudy
1:55 AM 28.4 °F - 24.8 °F 86% 29.84 in 9.0 mi Calm Calm - N/A   Mostly Cloudy
2:15 AM 28.4 °F - 24.8 °F 86% 29.85 in - Calm Calm - N/A   Unknown
2:35 AM 28.4 °F 21.2 °F 21.2 °F 74% 29.85 in - SW 6.9 mph - N/A   Mostly Cloudy
2:55 AM 28.4 °F 21.2 °F 21.2 °F 74% 29.85 in 10.0 mi WSW 6.9 mph - N/A   Mostly Cloudy
3:15 AM 28.4 °F 19.1 °F 21.2 °F 74% 29.85 in 10.0 mi West 10.4 mph - N/A   Mostly Cloudy
3:35 AM 28.4 °F 20.4 °F 19.4 °F 69% 29.86 in 10.0 mi West 8.1 mph - N/A   Mostly Cloudy
3:55 AM 26.6 °F 16.8 °F 19.4 °F 74% 29.86 in 10.0 mi West 10.4 mph - N/A   Clear
4:15 AM 26.6 °F 19.1 °F 19.4 °F 74% 29.87 in 10.0 mi WSW 6.9 mph - N/A   Clear
4:35 AM 26.6 °F 17.5 °F 19.4 °F 74% 29.88 in 10.0 mi WSW 9.2 mph - N/A   Clear
4:55 AM 26.6 °F 17.5 °F 17.6 °F 69% 29.89 in 10.0 mi WSW 9.2 mph 16.1 mph N/A   Clear
5:15 AM 26.6 °F 17.5 °F 19.4 °F 74% 29.89 in 10.0 mi SW 9.2 mph - N/A   Mostly Cloudy
5:35 AM 26.6 °F 20.0 °F 17.6 °F 69% 29.90 in 10.0 mi WSW 5.8 mph - N/A   Overcast
5:55 AM 28.4 °F - 17.6 °F 64% 29.91 in - Calm Calm - N/A   Overcast
6:15 AM 26.6 °F - 19.4 °F 74% 29.91 in - Calm Calm - N/A   Overcast
6:35 AM 26.6 °F - 17.6 °F 69% 29.92 in - Calm Calm - N/A   Overcast
6:51 AM 26.6 °F 19.1 °F 17.6 °F 69% 29.93 in 10.0 mi West 6.9 mph - N/A   Scattered Clouds
7:51 AM 28.4 °F 19.7 °F 17.6 °F 64% 29.95 in 10.0 mi WSW 9.2 mph 16.1 mph N/A   Mostly Cloudy
8:51 AM 28.4 °F 18.5 °F 21.2 °F 74% 29.97 in 10.0 mi WSW 11.5 mph 17.3 mph N/A   Mostly Cloudy
9:51 AM 30.2 °F 21.3 °F 21.2 °F 69% 29.98 in 10.0 mi West 10.4 mph - N/A   Mostly Cloudy
10:52 AM 35.6 °F 27.1 °F 19.4 °F 52% 29.99 in 10.0 mi West 12.7 mph 17.3 mph N/A   Mostly Cloudy
11:53 AM 33.8 °F 27.7 °F 19.4 °F 56% 30.02 in 10.0 mi WSW 6.9 mph - N/A   Mostly Cloudy
1:00 PM 33.8 °F 23.2 °F 19.4 °F 56% 30.02 in 6.0 mi WNW 17.3 mph 24.2 mph N/A Snow Light Snow
2:05 PM 35.6 °F 28.6 °F 21.2 °F 56% 30.03 in 5.0 mi North 9.2 mph - N/A   Overcast
2:15 PM 33.8 °F 23.9 °F 24.8 °F 70% 30.04 in 1.0 mi North 15.0 mph - N/A Snow Snow
2:28 PM 30.2 °F 23.4 °F 26.6 °F 86% 30.06 in 4.0 mi NE 6.9 mph - N/A Snow Light Snow
3:08 PM 32.0 °F 23.6 °F 24.8 °F 75% 30.07 in 3.0 mi North 10.4 mph - N/A Snow Light Snow
3:56 PM 30.2 °F 26.7 °F 26.6 °F 86% 30.10 in 8.0 mi East 3.5 mph - N/A   Mostly Cloudy
4:08 PM 32.0 °F 28.7 °F 26.6 °F 80% 30.11 in 1.0 mi SSE 3.5 mph - N/A Snow Light Snow
4:14 PM 32.0 °F 26.4 °F 28.4 °F 87% 30.11 in 0.8 mi SE 5.8 mph - N/A Snow Light Snow
4:54 PM 30.2 °F 21.9 °F 26.6 °F 86% 30.11 in 3.0 mi SSW 9.2 mph - N/A   Mostly Cloudy
5:51 PM 33.8 °F 28.6 °F 30.2 °F 87% 30.15 in 10.0 mi SE 5.8 mph - N/A   Mostly Cloudy
6:53 PM 33.8 °F - 26.6 °F 75% 30.17 in 10.0 mi Calm Calm - N/A   Scattered Clouds
7:55 PM 33.8 °F 29.6 °F 24.8 °F 70% 30.20 in 10.0 mi North 4.6 mph - N/A   Mostly Cloudy
8:40 PM 30.2 °F 20.8 °F 28.4 °F 93% 30.23 in 1.0 mi North 11.5 mph - N/A Snow Snow
8:45 PM 28.4 °F 20.4 °F 26.6 °F 93% 30.23 in 1.0 mi North 8.1 mph - N/A Snow Snow
9:00 PM 30.2 °F 21.9 °F 28.4 °F 93% 30.23 in 2.5 mi North 9.2 mph - N/A Snow Light Snow
9:15 PM 28.4 °F 23.3 °F 28.4 °F 100% 30.24 in - ESE 4.6 mph - N/A   Unknown
9:20 PM 30.2 °F - 28.4 °F 93% 30.22 in 10.0 mi NNE 2.3 mph - N/A   Mostly Cloudy
9:35 PM 28.4 °F 23.3 °F 28.4 °F 100% 30.25 in - East 4.6 mph - N/A   Unknown
9:55 PM 28.4 °F - 28.4 °F 100% 30.26 in - Calm Calm - N/A   Unknown
10:00 PM 28.4 °F - 26.6 °F 93% 30.22 in 10.0 mi Calm Calm - N/A   Clear
10:15 PM 28.4 °F - 26.6 °F 93% 30.26 in - Calm Calm - N/A   Unknown
10:35 PM 26.6 °F 21.2 °F 26.6 °F 100% 30.27 in - ESE 4.6 mph - N/A   Unknown
10:55 PM 24.8 °F 17.9 °F 23.0 °F 93% 30.28 in - ENE 5.8 mph - N/A   Unknown
11:15 PM 26.6 °F - 24.8 °F 93% 30.28 in - Calm Calm - N/A   Unknown
11:35 PM 24.8 °F 17.9 °F 23.0 °F 93% 30.29 in - North 5.8 mph - N/A   Unknown
11:55 PM 24.8 °F 17.9 °F 24.8 °F 100% 30.29 in - North 5.8 mph - N/A   Unknown